Weather History for Cumberland, MD

Change the Weather History Date:

Monday, November 19, 2012

  Actual Average (KMRB) Record (KMRB)
Temperature  
Mean Temperature 42 °F 43 °F  
Max Temperature 50 °F 53 °F 81 °F (1928)
Min Temperature 32 °F 33 °F 18 °F (1936)
Degree Days  
Heating Degree Days 24 22  
Month to date heating degree days 358  
Since 1 July heating degree days 804  
Cooling Degree Days 0 0  
Month to date cooling degree days 0  
Year to date cooling degree days 895  
Moisture  
Dew Point 34 °F    
Average Humidity 83    
Maximum Humidity 100    
Minimum Humidity 58    
Precipitation  
Precipitation 0.00 in 0.11 in 1.44 in (2003)
Month to date precipitation 1.94  
Year to date precipitation 34.80  
Sea Level Pressure  
Sea Level Pressure 30.41 in    
Wind  
Wind Speed 0 mph (NW)    
Max Wind Speed 5 mph    
Max Gust Speed -    
Visibility 8 miles    
Events      
T = Trace of Precipitation, MM = Missing Value Source: NWS Daily Summary

Daily Weather History Graph

Daily Weather History Graph

Search for Another Location

Airport:

Trip Planner

Search our weather history database for the weather conditions in past years. The results will help you decide how hot, cold, wet, or windy it might be!

Date:

Astronomy

Nov. 19, 2012 Rise Set
Actual Time 7:04 AM EST 4:56 PM EST
Civil Twilight 6:35 AM EST 5:25 PM EST
Nautical Twilight 6:02 AM EST 5:58 PM EST
Astronomical Twilight 5:30 AM EST 6:30 PM EST
Moon 12:06 PM EST (11/19) 11:20 PM EST (11/19)
Length of Visible Light 10h 50m
Length of Day
9h 52m
Waxing Crescent, 40% of the Moon is Illuminated
Nov 19
Waxing Crescent
Nov 20
First Quarter
Nov 28
Full
Dec 6
Last Quarter
Dec 13
New

Hourly Weather History & Observations

Time (EST) Temp. Windchill Dew Point Humidity Pressure Visibility Wind Dir Wind Speed Gust Speed Precip Events Conditions
12:14 AM 35.6 °F - 33.8 °F 93% 30.55 in 7.0 mi Calm Calm - N/A   Overcast
12:35 AM 35.6 °F - 33.8 °F 93% 30.54 in 7.0 mi Calm Calm - N/A   Overcast
12:57 AM 35.6 °F - 33.8 °F 93% 30.53 in 7.0 mi Calm Calm - N/A   Overcast
1:18 AM 35.6 °F - 33.8 °F 93% 30.52 in 10.0 mi Calm Calm - N/A   Overcast
1:39 AM 35.6 °F - 33.8 °F 93% 30.52 in 4.0 mi Calm Calm - N/A   Overcast
2:00 AM 33.8 °F - 33.8 °F 100% 30.52 in 7.0 mi Calm Calm - N/A   Overcast
2:22 AM 33.8 °F - 32.0 °F 93% 30.52 in 7.0 mi Calm Calm - N/A   Overcast
2:43 AM 33.8 °F - 32.0 °F 93% 30.52 in 7.0 mi Calm Calm - N/A   Overcast
3:04 AM 33.8 °F - 32.0 °F 93% 30.51 in 7.0 mi Calm Calm - N/A   Overcast
3:25 AM 33.8 °F - 33.8 °F 100% 30.51 in 5.0 mi Calm Calm - N/A   Overcast
3:47 AM 33.8 °F - 33.8 °F 100% 30.51 in 5.0 mi Calm Calm - N/A   Overcast
4:08 AM 33.8 °F - 32.0 °F 93% 30.51 in 7.0 mi Calm Calm - N/A   Overcast
5:33 AM 33.8 °F - 32.0 °F 93% 30.51 in 5.0 mi Calm Calm - N/A   Overcast
5:54 AM 33.8 °F - 33.8 °F 100% 30.50 in 5.0 mi Calm Calm - N/A   Overcast
6:16 AM 33.8 °F - 33.8 °F 100% 30.49 in 7.0 mi Calm Calm - N/A   Overcast
6:36 AM 33.8 °F - 33.8 °F 100% 30.49 in 5.0 mi Calm Calm - N/A   Overcast
6:58 AM 33.8 °F - 33.8 °F 100% 30.49 in 5.0 mi Calm Calm - N/A   Overcast
7:19 AM 35.6 °F - 33.8 °F 93% 30.49 in 5.0 mi Calm Calm - N/A   Overcast
7:41 AM 35.6 °F - 33.8 °F 93% 30.49 in 5.0 mi Calm Calm - N/A   Overcast
8:02 AM 35.6 °F - 33.8 °F 93% 30.49 in 4.0 mi Calm Calm - N/A   Overcast
8:23 AM 35.6 °F - 33.8 °F 93% 30.49 in 7.0 mi Calm Calm - N/A   Overcast
8:44 AM 35.6 °F - 35.6 °F 100% 30.49 in 5.0 mi Calm Calm - N/A   Mostly Cloudy
9:05 AM 37.4 °F - 33.8 °F 87% 30.49 in 5.0 mi Calm Calm - N/A   Overcast
9:27 AM 37.4 °F - 33.8 °F 87% 30.49 in 5.0 mi Calm Calm - N/A   Mostly Cloudy
9:48 AM 37.4 °F - 33.8 °F 87% 30.49 in 7.0 mi Calm Calm - N/A   Mostly Cloudy
10:09 AM 41.0 °F - 33.8 °F 76% 30.49 in 7.0 mi Calm Calm - N/A   Mostly Cloudy
10:30 AM 41.0 °F - 35.6 °F 81% 30.49 in 7.0 mi Calm Calm - N/A   Overcast
10:52 AM 41.0 °F - 35.6 °F 81% 30.47 in 7.0 mi Calm Calm - N/A   Overcast
11:13 AM 42.8 °F - 35.6 °F 76% 30.46 in 7.0 mi Calm Calm - N/A   Mostly Cloudy
11:34 AM 42.8 °F - 35.6 °F 76% 30.45 in 7.0 mi Calm Calm - N/A   Mostly Cloudy
11:55 AM 44.6 °F - 35.6 °F 71% 30.44 in 10.0 mi Calm Calm - N/A   Mostly Cloudy
12:17 PM 46.4 °F 45.2 °F 35.6 °F 66% 30.41 in 10.0 mi SW 3.5 mph - N/A   Scattered Clouds
12:38 PM 48.2 °F - 35.6 °F 62% 30.40 in 10.0 mi Calm Calm - N/A   Clear
12:59 PM 48.2 °F - 35.6 °F 62% 30.39 in 10.0 mi WSW 4.6 mph - N/A   Clear
1:20 PM 50.0 °F - 35.6 °F 58% 30.38 in 10.0 mi WSW 3.5 mph - N/A   Clear
1:41 PM 50.0 °F - 35.6 °F 58% 30.37 in 10.0 mi Calm Calm - N/A   Clear
2:03 PM 50.0 °F - 35.6 °F 58% 30.37 in 10.0 mi Calm Calm - N/A   Clear
2:24 PM 50.0 °F - 35.6 °F 58% 30.35 in 10.0 mi SSW 4.6 mph - N/A   Clear
2:45 PM 48.2 °F - 35.6 °F 62% 30.35 in 10.0 mi Calm Calm - N/A   Clear
3:06 PM 48.2 °F - 35.6 °F 62% 30.36 in 10.0 mi Calm Calm - N/A   Clear
3:28 PM 48.2 °F - 35.6 °F 62% 30.35 in 10.0 mi Calm Calm - N/A   Clear
3:49 PM 48.2 °F - 35.6 °F 62% 30.35 in 10.0 mi Calm Calm - N/A   Clear
4:10 PM 46.4 °F - 35.6 °F 66% 30.34 in 10.0 mi Calm Calm - N/A   Clear
4:31 PM 46.4 °F - 35.6 °F 66% 30.33 in 10.0 mi Calm Calm - N/A   Clear
4:53 PM 46.4 °F - 35.6 °F 66% 30.33 in 10.0 mi Calm Calm - N/A   Clear
5:14 PM 46.4 °F - 35.6 °F 66% 30.33 in 10.0 mi Calm Calm - N/A   Clear
5:35 PM 44.6 °F - 33.8 °F 66% 30.34 in 10.0 mi Calm Calm - N/A   Clear
5:56 PM 44.6 °F 43.1 °F 35.6 °F 71% 30.34 in 10.0 mi NNE 3.5 mph - N/A   Clear
6:18 PM 42.8 °F 41.1 °F 35.6 °F 76% 30.34 in 10.0 mi NW 3.5 mph - N/A   Clear
6:39 PM 42.8 °F 41.1 °F 35.6 °F 76% 30.32 in 10.0 mi NNW 3.5 mph - N/A   Clear
7:00 PM 42.8 °F 41.1 °F 35.6 °F 76% 30.32 in 10.0 mi North 3.5 mph - N/A   Clear
7:21 PM 42.8 °F 41.1 °F 35.6 °F 76% 30.32 in 10.0 mi North 3.5 mph - N/A   Clear
7:43 PM 37.4 °F - 35.6 °F 93% 30.31 in 10.0 mi Calm Calm - N/A   Clear
8:04 PM 37.4 °F - 35.6 °F 93% 30.32 in 10.0 mi Calm Calm - N/A   Clear
8:25 PM 37.4 °F 34.9 °F 33.8 °F 87% 30.31 in 10.0 mi East 3.5 mph - N/A   Clear
9:08 PM 37.4 °F - 35.6 °F 93% 30.31 in 10.0 mi Calm Calm - N/A   Clear
9:29 PM 35.6 °F - 33.8 °F 93% 30.31 in 10.0 mi Calm Calm - N/A   Clear
9:50 PM 35.6 °F - 33.8 °F 93% 30.30 in 10.0 mi Calm Calm - N/A   Clear
10:11 PM 35.6 °F - 33.8 °F 93% 30.30 in 10.0 mi Calm Calm - N/A   Clear
10:33 PM 33.8 °F - 32.0 °F 93% 30.29 in 10.0 mi Calm Calm - N/A   Clear
10:54 PM 33.8 °F - 33.8 °F 100% 30.28 in 10.0 mi Calm Calm - N/A   Clear
11:15 PM 33.8 °F - 33.8 °F 100% 30.28 in 7.0 mi Calm Calm - N/A   Clear
11:37 PM 33.8 °F - 32.0 °F 93% 30.28 in 7.0 mi Calm Calm - N/A   Clear
11:58 PM 32.0 °F - 32.0 °F 100% 30.28 in 7.0 mi Calm Calm - N/A   Clear